M0PSX-13 Weather Reports


time (UTC)temp
C
wind
direction
speed
KPH
gust
KPH
rain 1hr
cm
rain 24hr
cm
rain mn
cm
humidity
%
barometer
mb
20260506115004 11 337 0.0 3.2 0.00 0.00 0.00 71 1011.8
20260506114005 11 351 0.0 3.2 0.00 0.00 0.00 72 1011.5
20260506113005 12 352 0.0 6.4 0.00 0.00 0.00 70 1011.8
20260506112005 12 355 1.6 6.4 0.00 0.00 0.00 67 1011.5
20260506110004 12 348 3.2 6.4 0.00 0.00 0.00 64 1011.5
20260506105004 13 6 0.0 3.2 0.00 0.00 0.00 66 1011.4
20260506104004 13 353 0.0 3.2 0.00 0.00 0.00 65 1011.5
20260506102004 12 347 0.0 3.2 0.00 0.00 0.00 68 1011.5
20260506101005 12 343 0.0 9.7 0.00 0.00 0.00 69 1011.7
20260506095004 11 351 1.6 6.4 0.00 0.00 0.00 71 1011.7
20260506094004 11 344 1.6 6.4 0.00 0.00 0.00 70 1011.4
20260506093004 12 354 0.0 6.4 0.00 0.00 0.00 70 1011.6
20260506092004 11 344 1.6 6.4 0.00 0.00 0.00 72 1011.6
20260506091004 11 353 0.0 3.2 0.00 0.00 0.00 72 1011.5
20260506090004 11 356 0.0 3.2 0.00 0.00 0.00 72 1011.5
20260506084004 10 356 0.0 6.4 0.00 0.00 0.00 76 1011.4
20260506073004 9 2 1.6 3.2 0.00 0.00 0.00 81 1011.3
20260506072004 9 2 0.0 3.2 0.00 0.00 0.00 81 1011.4
20260506071005 9 3 0.0 3.2 0.00 0.00 0.00 81 1011.4
20260506062005 7 1 1.6 3.2 0.00 0.00 0.00 84 1011.1
20260506061005 7 1 0.0 3.2 0.00 0.00 0.00 84 1011.1
20260506051004 7 1 0.0 3.2 0.00 0.00 0.00 85 1011.0
20260506045004 7 13 0.0 3.2 0.00 0.00 0.00 85 1011.1
20260506044004 7 14 0.0 3.2 0.00 0.00 0.00 85 1011.1
20260506043004 7 23 0.0 3.2 0.00 0.00 0.00 84 1011.2
20260506042004 7 1 0.0 3.2 0.00 0.00 0.00 84 1011.1
20260506041004 7 0 0.0 0.0 0.00 0.00 0.00 84 1010.9
20260506040004 7 0 0.0 0.0 0.00 0.00 0.00 83 1011.1
20260506035004 8 23 0.0 3.2 0.00 0.00 0.00 83 1011.2
20260506033005 8 14 0.0 3.2 0.00 0.00 0.00 84 1011.2
20260506032004 8 22 0.0 3.2 0.00 0.00 0.00 84 1011.2
20260506031004 8 23 0.0 3.2 0.00 0.00 0.00 85 1011.2
20260506030008 8 22 0.0 3.2 0.00 0.00 0.00 85 1011.3
20260506025005 8 22 0.0 3.2 0.00 0.00 0.00 85 1011.3
20260506023005 8 22 0.0 3.2 0.00 0.00 0.00 84 1011.6
20260506022004 8 8 0.0 3.2 0.00 0.00 0.00 84 1011.5
20260506021004 9 0 0.0 0.0 0.00 0.00 0.00 84 1011.6
20260506015004 9 1 0.0 3.2 0.00 0.00 0.00 84 1011.8
20260506014004 9 1 0.0 3.2 0.00 0.00 0.00 84 1011.7
20260506013004 9 1 0.0 3.2 0.00 0.00 0.00 84 1011.7
20260506012004 9 1 0.0 3.2 0.00 0.00 0.00 84 1011.8
20260506011004 9 1 0.0 3.2 0.00 0.00 0.00 83 1011.6
20260506004004 9 349 0.0 6.4 0.00 0.00 0.00 83 1011.7
20260506003005 9 359 1.6 6.4 0.00 0.00 0.00 83 1011.9
20260506002005 10 356 1.6 6.4 0.00 0.00 0.00 82 1012.0
20260506000004 10 358 0.0 3.2 0.00 0.00 0.00 81 1011.8
20260505235004 10 355 1.6 6.4 0.00 0.00 0.00 81 1011.7
20260505233004 10 354 0.0 3.2 0.00 0.00 0.00 80 1011.8
20260505232004 10 349 0.0 6.4 0.00 0.00 0.00 80 1011.9
20260505231004 10 341 3.2 6.4 0.00 0.00 0.00 79 1011.9
20260505230010 10 343 3.2 9.7 0.00 0.00 0.00 79 1012.0
20260505225005 10 345 1.6 6.4 0.00 0.00 0.00 79 1011.8
20260505224004 10 353 3.2 6.4 0.00 0.00 0.00 79 1011.9
20260505223005 11 2 0.0 3.2 0.00 0.00 0.00 80 1012.0
20260505222004 11 354 0.0 6.4 0.00 0.00 0.00 80 1011.9
20260505221004 11 1 1.6 3.2 0.00 0.00 0.00 80 1011.8
20260505220004 11 357 1.6 6.4 0.00 0.00 0.00 80 1011.7
20260505215004 11 352 3.2 6.4 0.00 0.00 0.00 80 1012.0
20260505214005 11 358 1.6 3.2 0.00 0.00 0.00 79 1011.7
20260505211004 11 354 0.0 3.2 0.00 0.00 0.00 78 1011.8
20260505210004 11 349 3.2 3.2 0.00 0.00 0.00 79 1011.6
20260505205004 11 348 1.6 3.2 0.00 0.00 0.00 80 1011.8
20260505204004 11 348 1.6 6.4 0.00 0.00 0.00 80 1011.8
20260505203004 11 352 0.0 3.2 0.00 0.00 0.00 80 1011.7
20260505202004 11 348 1.6 6.4 0.00 0.00 0.00 80 1011.8
20260505200004 11 339 3.2 6.4 0.00 0.00 0.00 80 1011.4
20260505195004 11 341 3.2 6.4 0.00 0.00 0.00 80 1011.2
20260505191005 11 341 3.2 6.4 0.00 0.00 0.00 79 1011.2
20260505190005 11 345 1.6 6.4 0.00 0.00 0.00 78 1011.0
20260505185005 11 347 3.2 6.4 0.00 0.00 0.00 76 1010.9
20260505184005 12 348 1.6 6.4 0.00 0.00 0.00 73 1010.9
20260505183004 12 340 3.2 9.7 0.00 0.00 0.00 70 1010.7
20260505182004 12 341 1.6 6.4 0.00 0.00 0.00 69 1010.8
20260505181005 12 341 3.2 6.4 0.00 0.00 0.00 68 1010.9
20260505175004 12 345 3.2 6.4 0.00 0.00 0.00 68 1010.8
20260505174005 12 355 1.6 3.2 0.00 0.00 0.00 69 1010.7
20260505171005 13 355 1.6 3.2 0.00 0.00 0.00 70 1010.8
20260505170005 13 357 1.6 6.4 0.00 0.00 0.00 70 1010.5
20260505165005 13 349 3.2 6.4 0.00 0.00 0.00 70 1010.9
20260505164005 13 354 3.2 6.4 0.00 0.00 0.00 71 1010.7
20260505153004 13 339 1.6 9.7 0.00 0.00 0.00 72 1011.1
20260505152004 12 346 3.2 6.4 0.00 0.00 0.00 72 1011.1
20260505151005 12 345 3.2 9.7 0.00 0.00 0.00 74 1011.1
20260505125005 14 355 3.2 6.4 0.00 0.00 0.00 55 1011.3
20260505124005 14 346 3.2 6.4 0.00 0.00 0.00 58 1011.5
20260505123005 14 344 3.2 11.3 0.00 0.00 0.00 60 1011.6
20260505122006 14 348 4.8 9.7 0.00 0.00 0.00 59 1011.5
20260505121004 14 344 6.4 9.7 0.00 0.00 0.00 55 1011.5
20260505120005 14 346 3.2 9.7 0.00 0.00 0.00 60 1011.2